Starlink 2657

operational
NORAD ID: 48655 Int'l Des: 2021-044 Owner: SPXS Country: US Constellation: starlink
LEOCIRCULARSTARLINK_TYPE

About Starlink 2657

Description loading...

Live Position

Loading 3D Globe...

Upcoming Passes

Altitude History

Altitude vs Time

uPlot chart will show altitude changes over time

Two-Line Element Set

1 48655U 21044T 26035.83798703 .00006434 00000-0 22921-3 0 9996
2 48655 53.1605 266.5564 0001113 43.2897 316.8191 15.30194219258798
Epoch: Feb 4, 2026 • Age: 10 hours

Current Status

Altitude 480.5 km
Velocity 7.63 km/s
Sub-Earth Point 49.05°N, 160.16°E
Launch Date May 26, 2021
Age 4.6 years
Type internet

Technical Details

Classification Payload
Mass 260.00 kg
Dry Mass 248.00 kg
Total Mass 260.00 kg
Length 0.20 m
Diameter 2.80 m
Span 9.00 m
Shape Box + pan
Manufacturer SPXS
Bus Type Starlink
Phase Status In Orbit
Owner/State SPXS/US

Large Constellations

Loading constellations...